When you browse on this site, cookies collect data to enhance your experience and personalize the content and advertising you see.
Visit our Privacy Policy to learn more. By continuing to use the site, you agree to this use of cookies and data.
  • In Hungary
  • List of Countries
  • For 7 days
  • Water Temperature
  • Satellite Maps
  • Weather Map
  • News
  • Weather Widgets
  • user-avatar
    Login

    Hourly Weather Santa Rosa

    Today, 21 July, Sunday

    Time Temperature Precipitation Wind Pressure Humidity
    00:00 +12°C° 0 mm 3 mps 732 mmHg 93%
    01:00 +12°C° 0 mm 3 mps 731 mmHg 95%
    02:00 +14°C° 0 mm 2 mps 731 mmHg 97%
    03:00 +12°C° 0 mm 3 mps 731 mmHg 95%
    04:00 +12°C° 0 mm 4 mps 732 mmHg 92%
    05:00 +12°C° 0 mm 5 mps 732 mmHg 90%
    06:00 +10°C° 0 mm 5 mps 733 mmHg 76%
    07:00 +10°C° 0 mm 5 mps 734 mmHg 62%
    08:00 +9°C° 0 mm 6 mps 735 mmHg 49%
    09:00 +11°C° 0 mm 7 mps 736 mmHg 40%
    10:00 +12°C° 0 mm 9 mps 737 mmHg 31%
    11:00 +13°C° 0 mm 10 mps 738 mmHg 22%
    12:00 +14°C° 0 mm 10 mps 738 mmHg 20%
    13:00 +14°C° 0 mm 10 mps 738 mmHg 18%
    14:00 +16°C° 0 mm 10 mps 738 mmHg 16%
    15:00 +15°C° 0 mm 8 mps 738 mmHg 18%
    16:00 +14°C° 0 mm 6 mps 739 mmHg 19%
    17:00 +13°C° 0 mm 5 mps 739 mmHg 20%
    18:00 +12°C° 0 mm 5 mps 740 mmHg 21%
    19:00 +11°C° 0 mm 4 mps 741 mmHg 21%
    20:00 +11°C° 0 mm 4 mps 742 mmHg 22%
    21:00 +10°C° 0 mm 4 mps 743 mmHg 25%
    22:00 +8°C° 0 mm 4 mps 743 mmHg 27%
    23:00 +8°C° 0 mm 3 mps 744 mmHg 30%

    Tomorrow, 22 July, Monday

    Time Temperature Precipitation Wind Pressure Humidity
    00:00 +8°C° 0 mm 3 mps 744 mmHg 33%
    01:00 +7°C° 0 mm 3 mps 745 mmHg 36%
    02:00 +5°C° 0 mm 3 mps 745 mmHg 38%
    03:00 +5°C° 0 mm 4 mps 745 mmHg 41%
    04:00 +5°C° 0 mm 4 mps 746 mmHg 43%
    05:00 +5°C° 0 mm 4 mps 746 mmHg 46%
    06:00 +4°C° 0 mm 4 mps 746 mmHg 48%
    07:00 +4°C° 0 mm 4 mps 747 mmHg 50%
    08:00 +4°C° 0 mm 3 mps 748 mmHg 52%
    09:00 +6°C° 0 mm 4 mps 748 mmHg 45%
    10:00 +8°C° 0 mm 4 mps 749 mmHg 38%
    11:00 +10°C° 0 mm 5 mps 749 mmHg 31%
    12:00 +12°C° 0 mm 4 mps 749 mmHg 27%
    13:00 +12°C° 0 mm 4 mps 749 mmHg 23%
    14:00 +13°C° 0 mm 4 mps 748 mmHg 19%
    15:00 +12°C° 0 mm 4 mps 749 mmHg 22%
    16:00 +11°C° 0 mm 3 mps 749 mmHg 24%
    17:00 +10°C° 0 mm 3 mps 749 mmHg 27%
    18:00 +9°C° 0 mm 2 mps 749 mmHg 29%
    19:00 +8°C° 0 mm 1 mps 749 mmHg 31%
    20:00 +7°C° 0 mm 1 mps 750 mmHg 33%
    21:00 +6°C° 0 mm 1 mps 750 mmHg 34%
    22:00 +6°C° 0 mm 1 mps 751 mmHg 35%
    23:00 +5°C° 0 mm 0 mps 751 mmHg 36%

    Day after tomorrow, 23 July, Tuesday

    Time Temperature Precipitation Wind Pressure Humidity
    00:00 +4°C° 0 mm 0 mps 751 mmHg 37%
    01:00 +5°C° 0 mm 1 mps 751 mmHg 38%
    02:00 +5°C° 0 mm 1 mps 751 mmHg 39%
    03:00 +5°C° 0 mm 1 mps 751 mmHg 39%
    04:00 +4°C° 0 mm 1 mps 751 mmHg 39%
    05:00 +4°C° 0 mm 1 mps 751 mmHg 39%
    06:00 +5°C° 0 mm 1 mps 751 mmHg 39%
    07:00 +5°C° 0 mm 1 mps 752 mmHg 40%
    08:00 +5°C° 0 mm 1 mps 752 mmHg 40%
    09:00 +6°C° 0 mm 2 mps 752 mmHg 36%
    10:00 +9°C° 0 mm 2 mps 752 mmHg 32%
    11:00 +12°C° 0 mm 3 mps 753 mmHg 27%
    12:00 +13°C° 0 mm 3 mps 752 mmHg 26%
    13:00 +13°C° 0 mm 3 mps 751 mmHg 25%
    14:00 +14°C° 0 mm 4 mps 751 mmHg 24%
    15:00 +13°C° 0 mm 3 mps 751 mmHg 26%
    16:00 +13°C° 0 mm 2 mps 751 mmHg 28%
    17:00 +12°C° 0 mm 2 mps 751 mmHg 31%
    18:00 +10°C° 0 mm 2 mps 751 mmHg 32%
    19:00 +9°C° 0 mm 1 mps 752 mmHg 33%
    20:00 +8°C° 0 mm 1 mps 752 mmHg 34%
    21:00 +7°C° 0 mm 1 mps 753 mmHg 35%
    22:00 +7°C° 0 mm 1 mps 753 mmHg 35%
    23:00 +7°C° 0 mm 1 mps 753 mmHg 36%

    24 July, Wednesday

    Time Temperature Precipitation Wind Pressure Humidity
    00:00 +6°C° 0 mm 1 mps 753 mmHg 38%
    01:00 +5°C° 0 mm 1 mps 754 mmHg 41%
    02:00 +4°C° 0 mm 0 mps 754 mmHg 43%
    03:00 +3°C° 0 mm 0 mps 754 mmHg 44%
    04:00 +3°C° 0 mm 0 mps 754 mmHg 46%
    05:00 +3°C° 0 mm 0 mps 754 mmHg 48%
    06:00 +3°C° 0 mm 0 mps 755 mmHg 48%
    07:00 +4°C° 0 mm 1 mps 755 mmHg 48%
    08:00 +4°C° 0 mm 1 mps 755 mmHg 49%
    09:00 +6°C° 0 mm 1 mps 755 mmHg 43%
    10:00 +9°C° 0 mm 1 mps 756 mmHg 38%
    11:00 +10°C° 0 mm 2 mps 756 mmHg 32%
    12:00 +12°C° 0 mm 1 mps 756 mmHg 30%
    13:00 +13°C° 0 mm 1 mps 755 mmHg 29%
    14:00 +14°C° 0 mm 1 mps 755 mmHg 27%
    15:00 +13°C° 0 mm 1 mps 755 mmHg 29%
    16:00 +12°C° 0 mm 2 mps 754 mmHg 32%
    17:00 +10°C° 0 mm 2 mps 754 mmHg 34%
    18:00 +9°C° 0 mm 2 mps 755 mmHg 38%
    19:00 +8°C° 0 mm 3 mps 755 mmHg 41%
    20:00 +5°C° 0 mm 3 mps 755 mmHg 45%
    21:00 +5°C° 0 mm 3 mps 755 mmHg 48%
    22:00 +4°C° 0 mm 3 mps 755 mmHg 50%
    23:00 +4°C° 0 mm 4 mps 755 mmHg 53%

    25 July, Thursday

    Time Temperature Precipitation Wind Pressure Humidity
    00:00 +3°C° 0 mm 4 mps 755 mmHg 55%
    01:00 +3°C° 0 mm 4 mps 755 mmHg 57%
    02:00 +2°C° 0 mm 3 mps 755 mmHg 59%
    03:00 +1°C° 0 mm 4 mps 755 mmHg 61%
    04:00 +1°C° 0 mm 4 mps 754 mmHg 63%
    05:00 0°C° 0 mm 4 mps 754 mmHg 64%
    06:00 0°C° 0 mm 4 mps 754 mmHg 66%
    07:00 0°C° 0 mm 4 mps 754 mmHg 67%
    08:00 0°C° 0 mm 5 mps 754 mmHg 68%
    09:00 +3°C° 0 mm 6 mps 754 mmHg 59%
    10:00 +7°C° 0 mm 6 mps 754 mmHg 50%
    11:00 +9°C° 0 mm 7 mps 754 mmHg 41%
    12:00 +11°C° 0 mm 7 mps 753 mmHg 38%
    13:00 +12°C° 0 mm 8 mps 753 mmHg 35%
    14:00 +13°C° 0 mm 8 mps 752 mmHg 32%
    15:00 +12°C° 0 mm 7 mps 752 mmHg 35%
    16:00 +13°C° 0 mm 6 mps 751 mmHg 38%
    17:00 +12°C° 0 mm 5 mps 751 mmHg 41%
    18:00 +9°C° 0 mm 6 mps 751 mmHg 45%
    19:00 +8°C° 0 mm 6 mps 751 mmHg 49%
    20:00 +7°C° 0 mm 6 mps 751 mmHg 53%
    21:00 +7°C° 0 mm 6 mps 751 mmHg 55%
    22:00 +5°C° 0 mm 7 mps 751 mmHg 56%
    23:00 +5°C° 0 mm 7 mps 752 mmHg 58%

    26 July, Friday

    Time Temperature Precipitation Wind Pressure Humidity
    00:00 +4°C° 0 mm 6 mps 752 mmHg 61%
    01:00 +4°C° 0 mm 6 mps 752 mmHg 65%
    02:00 +3°C° 0 mm 6 mps 752 mmHg 68%
    03:00 +2°C° 0 mm 5 mps 751 mmHg 73%
    04:00 +2°C° 0 mm 5 mps 751 mmHg 78%
    05:00 +1°C° 0 mm 4 mps 751 mmHg 82%
    06:00 +1°C° 0 mm 4 mps 752 mmHg 84%
    07:00 0°C° 0 mm 4 mps 752 mmHg 87%
    08:00 0°C° 0 mm 4 mps 752 mmHg 89%
    09:00 +2°C° 0 mm 5 mps 752 mmHg 78%
    10:00 +5°C° 0 mm 5 mps 752 mmHg 68%
    11:00 +7°C° 0 mm 6 mps 752 mmHg 57%
    12:00 +9°C° 0 mm 6 mps 752 mmHg 53%
    13:00 +10°C° 0 mm 6 mps 751 mmHg 49%
    14:00 +11°C° 0 mm 6 mps 751 mmHg 45%
    15:00 +10°C° 0 mm 5 mps 751 mmHg 46%
    16:00 +11°C° 0 mm 4 mps 751 mmHg 47%
    17:00 +11°C° 0 mm 4 mps 751 mmHg 48%
    18:00 +8°C° 0 mm 4 mps 751 mmHg 52%
    19:00 +8°C° 0 mm 3 mps 751 mmHg 57%
    20:00 +7°C° 0 mm 3 mps 751 mmHg 61%
    21:00 +5°C° 0 mm 3 mps 752 mmHg 62%
    22:00 +5°C° 0 mm 3 mps 752 mmHg 62%
    23:00 +5°C° 0 mm 3 mps 752 mmHg 63%
    Show more